Regional Weather Roundup
Issued by NWS Green Bay, WI

Home | Current Version | Previous Version | Text Only | Print | Product List | Glossary On
Versions: 1 2 3 4 5 6 7 8 9 10 11 12 13 14 15 16 17 18 19 20 21 22 23 24 25 26 27 28 29 30 31 32 33 34 35 36 37 38 39 40 41 42 43 44 45 46 47 48 49 50
000
ASUS43 KGRB 240400
RWRGRB

NORTH-CENTRAL AND NORTHEAST WISCONSIN REGIONAL WEATHER ROUNDUP
NATIONAL WEATHER SERVICE GREEN BAY WI
1100 PM CDT SUN JUL 23 2017

WIZ005-009-010>012-018-019-240500-
NORTH CENTRAL WISCONSIN

CITY           SKY/WX    TMP DP  RH WIND       PRES   REMARKS
IRONWOOD       FOG       56  56 100 CALM      30.05R VSB 1/4
MANITOWISH WTR NOT AVBL
ARBOR VITAE    NOT AVBL
EAGLE RIVER    NOT AVBL
LAND O LAKES   NOT AVBL
RHINELANDER    CLEAR     55  55 100 CALM      30.02S
PHILLIPS       PTCLDY    58  56  92 NE3       30.02S
ANTIGO         NOT AVBL
TOMAHAWK       NOT AVBL
MERRILL        NOT AVBL
$$

WIZ013-073-240500-
NORTHEAST WISCONSIN

CITY           SKY/WX    TMP DP  RH WIND       PRES   REMARKS
IRON MOUNTAIN  MOCLDY    57  52  83 N12       29.99S
MARINETTE      CLOUDY    62  56  80 N9        29.96R
$$

WIZ017-030-035>037-045-240500-
CENTRAL WISCONSIN

CITY           SKY/WX    TMP DP  RH WIND       PRES   REMARKS
MEDFORD        NOT AVBL
WAUSAU         CLEAR     62  55  77 N5        29.98R
MOSINEE        NOT AVBL
MARSHFIELD     CLEAR     62  53  72 NE8       29.98R
WISC RAPIDS    CLEAR     65  56  72 NE8       29.98R
STEVENS POINT  NOT AVBL
WAUPACA        NOT AVBL
SHAWANO        NOT AVBL
CLINTONVILLE   NOT AVBL
WAUTOMA        CLEAR     64  56  75 NE8       29.96R
$$

WIZ038-039-048-051-240500-
FOX VALLEY

CITY           SKY/WX    TMP DP  RH WIND       PRES   REMARKS
NWS GREEN BAY  CLOUDY    63  58  83 N10       29.94R
APPLETON       MOCLDY    63  52  67 N14       29.94R
OSHKOSH        CLOUDY    65  56  72 N17       29.93S
FOND DU LAC    CLOUDY    66  56  70 NE18      29.93S
$$

WIZ022-050-052-240500-
EAST CENTRAL WISCONSIN

CITY           SKY/WX    TMP DP  RH WIND       PRES   REMARKS
EPHRAIM        NOT AVBL
WASHINGTON ISL NOT AVBL
STURGEON BAY     N/A     63  58  83 N16       29.94R
MANITOWOC      NOT AVBL
SHEBOYGAN      CLOUDY    64  59  83 N8        29.92R
$$

LMZ563-521-522-541>543-240500-
LAKESHORE

STATION/POSITION TIME  TEMP    WIND        PRES    VSBY  WAVE
                       AIR SEA DIR/SP/G                  HT/PER
                 (UTC) (F)     (DEG/KT/KT) (MB)    (MI)  (FT/S)
SHEBOYGAN LKSHOR 0300   66      10/ 27/ 29 1011.8R
KEWAUNEE LKSHORE 0330   64     360/  6/ 10 1012.3F
NORTHPORT PIER   0340   63      30/ 15/ 17 1013.9S
N MID LAKE BUOY  0250   62 66   50/ 19/ 23 1013.2R         4/ 5
S GREEN BAY BUOY 0330   65 72   10/ 17/ 21 1013.5S
SISTER BAY LKSHO 0317   63      10/ 12/ 21   N/A
CHAMBERS ISLAND  0340   64     350/ 18/ 22 1013.2S
MENOMINEE LKSHOR 0330   64      10/ 18/ 21 1013.6S
$$



USA.gov is the U.S. government's official web portal to all federal, state and local government web resources and services.